CDT,Max TemperatureF,Mean TemperatureF,Min TemperatureF,Max Dew PointF,MeanDew PointF,Min DewpointF,Max Humidity, Mean Humidity, Min Humidity, Max Sea Level PressureIn, Mean Sea Level PressureIn, Min Sea Level PressureIn, Max VisibilityMiles, Mean VisibilityMiles, Min VisibilityMiles, Max Wind SpeedMPH, Mean Wind SpeedMPH, Max Gust SpeedMPH,PrecipitationIn, CloudCover, Events, WindDirDegrees
2012-10-1,87,74,61,64,58,49,87,66,29,29.88,29.84,29.79,10,10,10,13,9,,0.00,0,,311
2012-10-2,84,74,64,64,61,56,94,70,38,29.97,29.91,29.86,10,9,6,15,7,17,0.01,1,Rain-Thunderstorm,319
2012-10-3,86,74,62,66,61,57,88,66,40,30.04,29.99,29.96,10,9,7,10,4,23,0.00,0,,130
2012-10-4,88,82,75,73,72,68,88,74,61,30.12,30.08,30.03,10,10,10,17,10,24,0.00,3,,146
2012-10-5,87,80,73,72,69,66,89,72,53,30.11,30.05,29.99,10,10,10,12,7,,0.00,0,,152
2012-10-6,88,78,69,71,68,65,90,73,51,30.03,29.98,29.93,10,10,7,14,6,,0.00,2,,83
2012-10-7,71,65,59,64,54,48,82,69,51,30.17,30.11,30.02,10,9,7,18,14,25,0.00,6,,6
2012-10-8,70,64,59,59,52,48,81,65,54,30.21,30.14,30.10,10,10,10,17,10,21,0.00,7,,14
2012-10-9,84,72,61,70,65,56,88,74,58,30.09,30.03,29.96,10,10,7,16,7,20,0.00,4,,132
2012-10-10,90,82,73,75,73,71,94,80,59,30.09,30.05,29.98,10,9,4,21,8,131,0.00,3,,115
2012-10-11,87,81,75,75,73,72,91,78,61,30.14,30.10,30.05,10,9,6,17,9,20,0.00,3,,123
2012-10-12,89,80,73,74,72,70,94,77,61,30.17,30.12,30.09,10,9,4,15,8,20,0.01,1,,122
2012-10-13,88,82,77,74,73,71,84,74,62,30.10,30.04,29.96,10,10,9,23,13,29,0.00,3,,155
2012-10-14,89,84,75,74,72,70,87,72,57,30.07,30.01,29.96,10,9,7,14,11,,0.00,2,,177
2012-10-15,88,78,68,72,63,54,87,66,34,30.07,30.02,29.96,10,10,8,13,6,,0.00,1,,37
2012-10-16,82,72,62,72,64,57,90,79,62,29.98,29.87,29.80,10,9,2,18,7,25,0.25,4,Rain,70
2012-10-17,86,77,68,76,73,64,90,81,67,29.78,29.73,29.65,10,9,6,16,9,20,0.00,1,,171
2012-10-18,84,76,71,76,69,57,94,75,42,29.94,29.81,29.72,10,6,1,18,7,24,0.00,7,,49
2012-10-19,88,72,57,59,53,40,84,55,20,30.02,29.96,29.93,10,10,9,13,8,,0.00,1,,63
2012-10-20,87,75,63,73,68,57,84,75,61,29.95,29.90,29.85,10,9,7,21,8,25,0.00,2,,143
2012-10-21,88,82,78,74,73,72,87,77,61,29.97,29.92,29.88,10,8,6,21,12,77,0.00,2,,151
2012-10-22,86,80,75,73,70,68,79,70,57,30.01,29.97,29.93,10,10,7,20,13,26,0.00,4,,143
2012-10-23,87,80,73,70,68,66,84,69,51,29.99,29.96,29.94,10,10,10,14,10,,0.00,0,,144
2012-10-24,87,78,70,73,69,66,90,74,51,29.99,29.94,29.89,10,10,6,14,7,16,0.00,1,,134
2012-10-25,88,82,75,73,72,70,89,76,59,29.92,29.87,29.84,10,10,10,15,8,21,0.00,1,,163
2012-10-26,77,66,57,71,55,47,91,72,54,30.18,30.04,29.92,10,10,8,25,16,36,0.00,7,,3
2012-10-27,69,57,53,47,42,38,69,61,42,30.24,30.18,30.14,10,10,10,24,19,31,0.00,8,,358
2012-10-28,72,62,51,40,35,30,61,43,21,30.25,30.19,30.14,10,10,9,16,10,22,0.00,3,,7
2012-10-29,73,58,42,46,38,32,79,54,23,30.27,30.21,30.15,10,10,10,12,6,,0.00,0,,58
2012-10-30,79,62,46,60,50,40,81,64,43,30.15,30.07,30.01,10,10,10,12,5,,0.00,0,,130
2012-10-31,84,72,60,68,64,57,90,76,54,30.06,30.01,29.97,10,10,9,12,5,,0.00,0,,170